TimeMDT,TemperatureF,Dew PointF,Humidity,Sea Level PressureIn,VisibilityMPH,Wind Direction,Wind SpeedMPH,Gust SpeedMPH,PrecipitationIn,Events,Conditions,WindDirDegrees,DateUTC
12:28 AM,33.8,32.0,93,29.79,5.0,SW,20.7,27.6,0.01,Snow,Light Snow,220,2013-03-21 06:28:00
12:44 AM,33.8,32.0,93,29.77,10.0,SSW,17.3,21.9,0.01,,Mostly Cloudy,210,2013-03-21 06:44:00
12:53 AM,34.0,32.0,92,29.72,10.0,SSW,13.8,21.9,0.01,,Scattered Clouds,210,2013-03-21 06:53:00
1:09 AM,33.8,30.2,87,29.78,2.5,SW,16.1,-,N/A,,Mostly Cloudy,220,2013-03-21 07:09:00
1:23 AM,33.8,32.0,93,29.77,10.0,SW,16.1,-,N/A,,Mostly Cloudy,220,2013-03-21 07:23:00
1:31 AM,33.8,32.0,93,29.77,10.0,SW,13.8,-,N/A,,Overcast,230,2013-03-21 07:31:00
1:44 AM,33.8,32.0,93,29.76,1.8,WSW,10.4,-,0.01,Snow,Light Snow,240,2013-03-21 07:44:00
1:49 AM,33.8,32.0,93,29.74,1.0,SSW,9.2,-,0.02,Snow,Light Snow,200,2013-03-21 07:49:00
1:53 AM,33.1,32.0,96,29.69,1.0,SSW,10.4,-,0.02,Snow,Light Snow,200,2013-03-21 07:53:00
1:58 AM,33.8,32.0,93,29.74,0.8,SSW,9.2,-,0.00,Snow,Light Snow,200,2013-03-21 07:58:00
2:10 AM,33.8,32.0,93,29.74,1.0,South,11.5,-,0.00,Snow,Light Snow,190,2013-03-21 08:10:00
2:14 AM,33.8,32.0,93,29.74,2.0,SSW,8.1,18.4,0.01,Snow,Light Snow,210,2013-03-21 08:14:00
2:18 AM,33.8,32.0,93,29.74,3.0,SW,8.1,18.4,0.01,Snow,Light Snow,220,2013-03-21 08:18:00
2:27 AM,33.8,32.0,93,29.73,9.0,South,4.6,-,0.01,,Overcast,190,2013-03-21 08:27:00
2:43 AM,33.8,30.2,87,29.75,6.0,WNW,20.7,26.5,0.01,Snow,Light Snow,300,2013-03-21 08:43:00
2:45 AM,33.8,30.2,87,29.76,1.8,WNW,16.1,26.5,0.02,Snow,Light Snow,290,2013-03-21 08:45:00
2:48 AM,33.8,30.2,87,29.76,0.8,WNW,18.4,26.5,0.03,Snow,Light Snow,290,2013-03-21 08:48:00
2:51 AM,33.8,30.2,87,29.76,0.5,West,16.1,26.5,0.05,Fog-Snow-Thunderstorm,Thunderstorms and Snow,280,2013-03-21 08:51:00
2:53 AM,33.1,30.9,92,29.68,0.2,West,15.0,-,0.06,Fog-Snow-Thunderstorm,Heavy Thunderstorms and Snow,280,2013-03-21 08:53:00
3:01 AM,33.8,32.0,93,29.75,0.8,West,19.6,25.3,0.00,Snow-Thunderstorm,Light Thunderstorms and Snow,280,2013-03-21 09:01:00
3:05 AM,33.8,30.2,87,29.75,1.2,West,18.4,25.3,0.00,Snow,Light Snow,270,2013-03-21 09:05:00
3:15 AM,33.8,30.2,87,29.75,1.0,WSW,16.1,-,0.01,Snow,Light Snow,250,2013-03-21 09:15:00
3:32 AM,33.8,32.0,93,29.74,1.8,SW,9.2,-,0.01,Snow,Light Snow,230,2013-03-21 09:32:00
3:38 AM,32.0,32.0,100,29.73,0.8,SW,6.9,-,0.01,Snow,Light Snow,220,2013-03-21 09:38:00
3:50 AM,32.0,30.2,93,29.71,1.0,SW,8.1,-,0.01,Snow,Light Snow,220,2013-03-21 09:50:00
3:51 AM,32.0,30.9,96,29.63,1.0,SW,8.1,-,0.01,Snow,Light Snow,220,2013-03-21 09:51:00
3:54 AM,32.0,30.2,93,29.71,2.5,SW,8.1,-,0.00,Snow,Light Snow,220,2013-03-21 09:54:00
4:01 AM,32.0,30.2,93,29.71,7.0,WSW,5.8,-,0.00,Snow,Light Snow,240,2013-03-21 10:01:00
4:10 AM,32.0,30.2,93,29.72,9.0,WSW,9.2,-,0.00,,Mostly Cloudy,250,2013-03-21 10:10:00
4:53 AM,32.0,28.9,88,29.65,10.0,WSW,4.6,-,0.00,,Mostly Cloudy,240,2013-03-21 10:53:00
5:04 AM,32.0,28.4,87,29.71,10.0,WSW,8.1,-,N/A,,Mostly Cloudy,250,2013-03-21 11:04:00
5:53 AM,32.0,27.0,82,29.67,10.0,West,15.0,20.7,0.00,,Overcast,280,2013-03-21 11:53:00
6:14 AM,30.2,26.6,86,29.73,10.0,NW,10.4,-,N/A,,Overcast,310,2013-03-21 12:14:00
6:43 AM,28.4,24.8,86,29.74,10.0,North,18.4,24.2,N/A,,Overcast,350,2013-03-21 12:43:00
6:53 AM,27.0,25.0,92,29.72,3.0,NNW,24.2,31.1,0.00,Snow,Light Snow,340,2013-03-21 12:53:00
6:59 AM,26.6,24.8,93,29.76,2.5,North,24.2,32.2,0.00,Snow,Light Snow,350,2013-03-21 12:59:00
7:14 AM,24.8,21.2,86,29.77,1.5,North,29.9,35.7,0.00,Snow,Light Snow,350,2013-03-21 13:14:00
7:19 AM,24.8,21.2,86,29.78,0.8,North,24.2,35.7,0.00,Snow,Light Snow,350,2013-03-21 13:19:00
7:25 AM,24.8,21.2,86,29.80,0.5,NNW,21.9,32.2,0.00,Fog-Snow,Snow,340,2013-03-21 13:25:00
7:32 AM,24.8,21.2,86,29.81,1.0,NNW,19.6,-,0.00,Snow,Light Snow,340,2013-03-21 13:32:00
7:37 AM,24.8,21.2,86,29.80,2.0,NNW,15.0,25.3,0.00,Snow,Light Snow,340,2013-03-21 13:37:00
7:43 AM,24.8,21.2,86,29.81,1.5,NW,15.0,-,0.00,Snow,Light Snow,320,2013-03-21 13:43:00
7:50 AM,24.8,21.2,86,29.82,0.5,NW,11.5,-,0.00,Fog-Snow,Snow,310,2013-03-21 13:50:00
7:53 AM,24.1,21.9,91,29.82,0.5,WNW,10.4,-,0.00,Fog-Snow,Snow,300,2013-03-21 13:53:00
8:12 AM,24.8,21.2,86,29.80,0.5,WNW,3.5,-,0.00,Fog-Snow,Snow,300,2013-03-21 14:12:00
8:21 AM,24.8,21.2,86,29.80,0.5,WSW,3.5,-,0.01,Fog-Snow,Snow,240,2013-03-21 14:21:00
8:29 AM,24.8,21.2,86,29.81,1.0,WSW,10.4,-,0.01,Snow,Light Snow,250,2013-03-21 14:29:00
8:32 AM,24.8,21.2,86,29.81,2.5,WSW,10.4,-,0.01,Snow,Light Snow,250,2013-03-21 14:32:00
8:38 AM,24.8,21.2,86,29.81,7.0,WSW,13.8,-,0.01,,Overcast,240,2013-03-21 14:38:00
8:44 AM,24.8,21.2,86,29.81,9.0,SW,15.0,-,0.01,,Overcast,230,2013-03-21 14:44:00
8:53 AM,25.0,21.9,88,29.81,8.0,WSW,16.1,-,0.01,Snow,Light Snow,240,2013-03-21 14:53:00
9:50 AM,24.8,19.4,80,29.82,10.0,West,12.7,23.0,0.00,,Scattered Clouds,270,2013-03-21 15:50:00
9:53 AM,26.1,19.0,75,29.83,10.0,West,19.6,24.2,0.00,,Scattered Clouds,260,2013-03-21 15:53:00
10:42 AM,24.8,15.8,69,29.84,10.0,West,18.4,23.0,N/A,,Mostly Cloudy,280,2013-03-21 16:42:00
10:53 AM,24.1,16.0,71,29.87,10.0,West,13.8,-,N/A,,Mostly Cloudy,280,2013-03-21 16:53:00
11:53 AM,27.0,15.1,61,29.87,10.0,West,19.6,27.6,N/A,,Clear,270,2013-03-21 17:53:00
12:53 PM,28.0,15.1,58,29.87,10.0,West,23.0,-,N/A,,Clear,260,2013-03-21 18:53:00
1:53 PM,28.0,14.0,56,29.88,10.0,West,24.2,31.1,N/A,,Clear,260,2013-03-21 19:53:00
2:53 PM,30.0,16.0,56,29.87,10.0,WSW,26.5,35.7,N/A,,Scattered Clouds,250,2013-03-21 20:53:00
3:53 PM,30.0,16.0,56,29.89,10.0,WSW,23.0,38.0,N/A,,Clear,250,2013-03-21 21:53:00
4:53 PM,27.0,18.0,69,29.92,6.0,WSW,19.6,28.8,0.00,Snow,Light Snow,240,2013-03-21 22:53:00
5:26 PM,26.6,15.8,64,29.90,10.0,WSW,21.9,29.9,0.00,,Overcast,250,2013-03-21 23:26:00
5:53 PM,28.9,12.9,51,29.91,10.0,WSW,17.3,28.8,0.00,,Overcast,240,2013-03-21 23:53:00
6:53 PM,26.1,10.9,53,29.94,10.0,WSW,25.3,-,N/A,,Clear,250,2013-03-22 00:53:00
7:53 PM,23.0,10.9,60,29.98,10.0,WSW,20.7,-,N/A,,Clear,240,2013-03-22 01:53:00
8:53 PM,21.0,10.9,65,30.00,10.0,SSW,9.2,-,N/A,,Clear,210,2013-03-22 02:53:00
9:53 PM,19.9,10.0,65,29.99,10.0,SW,10.4,-,N/A,,Clear,220,2013-03-22 03:53:00
10:53 PM,19.9,10.0,65,30.01,10.0,SSW,6.9,-,N/A,,Clear,210,2013-03-22 04:53:00
11:53 PM,19.9,9.0,62,29.98,10.0,West,11.5,-,N/A,,Clear,260,2013-03-22 05:53:00